FORMOSAT-3 FM6

Last updated on Tue Mar 15 2022 00:02:21 GMT+0000 (Coordinated Universal Time)

1 29047U 06011A 22073.55360281 .00000245 00000+0 11181-3 0 9999 2 29047 71.9762 253.5560 0048993 45.2596 315.2511 14.28917592832005
UTC large
Height (km)
Speed (km/s)
/
Latitude / Longitude
Inclination (degrees)
Orbital Period (minutes)
Azimuth
Elevation
Range (km)
Doppler Factor

Next 0 passes for location: London (51.5072 / 0.1276)

Sorry there are no passes over London.
FORMOSAT-3 FM6